Hourly Data Report for May 17, 2012

All times are specified in Local Standard Time (LST). Add 1 hour to adjust for Daylight Saving Time where and when it is observed.

GANDER INTL A
NEWFOUNDLAND

48°56'13.000" N
54°34'05.000" W
151.20 m
8401703
71803
YQX

Download Data

Hourly Data (May 2012)
Hourly Data Report for May 17, 2012
Temp Definition
°C
Dew Point Temp Definition
°C
Rel Hum Definition
%
Wind Dir Definition
10's deg

Wind Spd Definition
km/h
Visibility Definition
km
Stn Press Definition
kPa
Hmdx Definition


Wind Chill Definition


Weather Definition


TIME
00:30 Legend Double Dagger 14.0 12.1 88 18 18 10.0 100.32     LegendNANA
01:30 Legend Double Dagger 14.0 12.4 90 16 21 10.0 100.24     Rain Showers
02:30 Legend Double Dagger 13.4 12.6 95 18 24 10.0 100.20     Rain Showers
03:30 Legend Double Dagger 13.3 12.7 96 18 21 10.0 100.14     Rain Showers
04:30 Legend Double Dagger 13.4 12.6 95 18 22 10.0 100.09     Rain
05:30 Legend Double Dagger 14.1 13.2 94 18 26 10.0 100.04     Rain
06:30 Legend Double Dagger 14.4 13.5 94 18 23 10.0 100.03     Rain
07:30 Legend Double Dagger 15.0 14.1 94 19 36 10.0 99.97     Rain
08:30 Legend Double Dagger 14.9 14.0 94 20 24 10.0 100.00     Rain
09:30 Legend Double Dagger 15.6 14.2 91 18 25 10.0 99.96     LegendNANA
10:30 Legend Double Dagger 17.4 14.7 84 20 31 10.0 99.92     LegendNANA
11:30 Legend Double Dagger 18.2 14.6 79 21 38 10.0 99.90     Mostly Cloudy
12:30 Legend Double Dagger 18.8 14.7 77 20 37 10.0 99.86     LegendNANA
13:30 Legend Double Dagger 19.6 14.3 71 20 38 10.0 99.78     LegendNANA
14:30 Legend Double Dagger 18.5 14.3 76 21 41 10.0 99.76     Mostly Cloudy
15:30 Legend Double Dagger 18.3 13.9 75 20 40 10.0 99.67     Rain Showers
16:30 Legend Double Dagger 17.4 13.6 78 19 38 10.0 99.60     LegendNANA
17:30 Legend Double Dagger 14.9 13.5 91 19 14 10.0 99.61     Rain Showers
18:30 Legend Double Dagger 13.9 13.0 94 17 15 10.0 99.57     Rain Showers
19:30 Legend Double Dagger 13.1 12.3 95 18 23 10.0 99.50     Rain Showers
20:30 Legend Double Dagger 12.7 11.9 95 17 21 10.0 99.47     Rain
21:30 Legend Double Dagger 12.3 11.7 96 17 24 10.0 99.37     Rain
22:30 Legend Double Dagger 12.3 11.5 95 19 14 10.0 99.29     Rain
23:30 Legend Double Dagger 11.9 11.0 94 22 11 10.0 99.23     Rain

Notes on Data Quality.

Legend

  • E = Estimated
  • M = Missing
  • NA = Not Available
  • ‡ = Partner data that is not subject to review by the National Climate Archives
Date modified: